Weather History for PAFA - November, 2012

Change the Weather History Date:

Friday, November 23, 2012

  Actual Average Record
Temperature  
Mean Temperature -7 °F -1 °F  
Max Temperature 4 °F 8 °F 45 °F (1952)
Min Temperature -18 °F -9 °F -39 °F (1994)
Degree Days  
Heating Degree Days 72 66  
Month to date heating degree days 1601 1406  
Since 1 July heating degree days 3886 3665  
Cooling Degree Days 0 0  
Month to date cooling degree days 0 0  
Year to date cooling degree days 34 61  
Moisture  
Dew Point -15 °F    
Average Humidity 73    
Maximum Humidity 82    
Minimum Humidity 55    
Precipitation  
Precipitation 0.00 in 0.03 in 0.32 in (2010)
Month to date precipitation 0.29 0.53  
Year to date precipitation 9.43 10.03  
Snow  
Snow 0.00 in 0.50 in 2.90 in (1971)
Month to date snowfall 4.2 10.3  
Since 1 July snowfall 11.3 22.9  
Since 1 September snowfall 11.3 22.9  
Snow Depth 6.00 in    
Sea Level Pressure  
Sea Level Pressure 30.06 in    
Wind  
Wind Speed 6 mph (NE)    
Max Wind Speed 12 mph    
Max Gust Speed -    
Visibility 10 miles    
Events      
T = Trace of Precipitation, MM = Missing Value Source: NWS Daily Summary

Daily Weather History Graph

Daily Weather History Graph

Search for Another Location

Airport or City:

Trip Planner

Search our weather history database for the weather conditions in past years. The results will help you decide how hot, cold, wet, or windy it might be!

Date:

Astronomy

Nov. 23, 2012 Rise Set
Actual Time 9:55 AM AKST 3:19 PM AKST
Civil Twilight 8:47 AM AKST 4:28 PM AKST
Nautical Twilight 7:41 AM AKST 5:33 PM AKST
Astronomical Twilight 6:42 AM AKST 6:32 PM AKST
Moon 2:06 PM AKST 3:47 AM AKST
Length of Visible Light 7h 41m
Length of Day
5h 23m
Waxing Gibbous, 81% of the Moon is Illuminated
Nov 23
Waxing Gibbous
Nov 28
Full
Dec 6
Last Quarter
Dec 12
New
Dec 19
First Quarter

Hourly Weather History & Observations

Time (AKST) Temp. Windchill Dew Point Humidity Pressure Visibility Wind Dir Wind Speed Gust Speed Precip Events Conditions
12:53 AM -13.0 °F -33.4 °F -18.0 °F 78% 30.04 in 10.0 mi NE 11.5 mph - N/A   Clear
1:53 AM -9.0 °F -23.8 °F -14.1 °F 79% 30.03 in 10.0 mi NE 6.9 mph - N/A   Clear
3:53 AM -6.0 °F -18.6 °F -14.1 °F 68% 30.02 in 10.0 mi ENE 5.8 mph - N/A   Partly Cloudy
4:53 AM -5.1 °F -13.6 °F -11.9 °F 72% 30.02 in 10.0 mi North 3.5 mph - N/A   Partly Cloudy
5:53 AM -4.0 °F -16.3 °F -11.0 °F 72% 30.02 in 10.0 mi NNE 5.8 mph - N/A   Partly Cloudy
6:53 AM -5.1 °F -13.6 °F -11.9 °F 72% 30.01 in 10.0 mi North 3.5 mph - N/A   Partly Cloudy
7:53 AM -9.0 °F -23.8 °F -15.0 °F 75% 30.01 in 10.0 mi NE 6.9 mph - N/A   Partly Cloudy
8:53 AM -7.1 °F -21.4 °F -14.1 °F 72% 30.02 in 10.0 mi NE 6.9 mph - N/A   Partly Cloudy
9:53 AM -11.0 °F -20.4 °F -16.1 °F 78% 30.03 in 10.0 mi East 3.5 mph - N/A   Partly Cloudy
10:53 AM -4.0 °F -14.6 °F -11.9 °F 69% 30.04 in 10.0 mi ENE 4.6 mph - N/A   Partly Cloudy
11:53 AM -9.9 °F -21.5 °F -15.0 °F 78% 30.04 in 10.0 mi East 4.6 mph - N/A   Partly Cloudy
12:53 PM 1.9 °F -7.6 °F -8.0 °F 63% 30.05 in 10.0 mi NNE 4.6 mph - N/A   Clear
1:53 PM -0.0 °F -9.9 °F -9.0 °F 66% 30.06 in 10.0 mi NE 4.6 mph - N/A   Clear
2:53 PM -2.9 °F -11.2 °F -11.0 °F 68% 30.06 in 10.0 mi North 3.5 mph - N/A   Clear
3:53 PM -8.0 °F - -14.1 °F 75% 30.07 in 10.0 mi Calm Calm - N/A   Clear
4:53 PM -11.9 °F - -16.1 °F 82% 30.07 in 10.0 mi Calm Calm - N/A   Clear
5:53 PM -9.0 °F -18.2 °F -14.1 °F 79% 30.08 in 10.0 mi North 3.5 mph - N/A   Clear
6:53 PM -15.0 °F - -20.0 °F 78% 30.09 in 10.0 mi Calm Calm - N/A   Clear
7:53 PM -15.0 °F - -20.0 °F 78% 30.10 in 10.0 mi Calm Calm - N/A   Clear
8:53 PM -14.1 °F -23.9 °F -18.9 °F 79% 30.11 in 10.0 mi NNE 3.5 mph - N/A   Clear
9:53 PM -17.0 °F -27.2 °F -22.0 °F 78% 30.12 in 10.0 mi NNE 3.5 mph - N/A   Clear
10:53 PM -14.1 °F -23.9 °F -18.9 °F 79% 30.13 in 10.0 mi NNE 3.5 mph - N/A   Clear
11:53 PM -15.0 °F - -20.0 °F 78% 30.14 in 10.0 mi Calm Calm - N/A   Clear